Location: Austin
(30.3000°N, 97.7500°W)
Time: 23:42:12
(UTC-05:00)

Cosmos 1605 Rocket - Pass Details

Date: 06 May 2026
Orbit: 945 x 1004 km, 82.9° (Epoch: 13 May)

Event Time Altitude Azimuth Distance (km) Brightness Sun altitude
Rises 20:40:07 0° 172° (S) 3,601 6.7 -6.4°
Reaches altitude 10° 20:42:38 10° 168° (SSE) 2,664 6.0 -6.9°
Maximum altitude 20:48:33 55° 91° (E) 1,134 4.1 -8.1°
Drops below altitude 10° 20:54:34 10° 16° (NNE) 2,711 6.5 -9.2°
Sets 20:57:08 0° 12° (NNE) 3,670 7.2 -9.7°
